CW0133 Weather Reports


time (UTC)temp
C
wind
direction
speed
KPH
gust
KPH
rain 1hr
cm
rain 24hr
cm
rain mn
cm
humidity
%
barometer
mb
20260504050503 18 160 9.7 19.3 0.00 0.00 0.00 67 1019.3
20260504050004 18 161 8.0 19.3 0.00 0.00 0.00 67 1019.3
20260504045503 18 159 9.7 25.7 0.00 0.00 0.00 67 1019.2
20260504045004 18 159 9.7 25.7 0.00 0.00 0.00 67 1019.2
20260504044503 18 164 9.7 20.9 0.00 0.00 0.00 66 1019.2
20260504044003 18 164 9.7 20.9 0.00 0.00 0.00 66 1019.3
20260504043503 19 163 9.7 22.5 0.00 0.00 0.00 66 1019.3
20260504043003 18 160 9.7 22.5 0.00 0.00 0.00 66 1019.2
20260504042524 18 162 11.3 22.5 0.00 0.00 0.00 66 1019.2
20260504042003 18 163 11.3 22.5 0.00 0.00 0.00 66 1019.4
20260504041503 18 157 9.7 22.5 0.00 0.00 0.00 66 1019.5
20260504041004 18 155 9.7 19.3 0.00 0.00 0.00 66 1019.3
20260504040503 18 156 9.7 19.3 0.00 0.00 0.00 66 1019.3
20260504040004 18 158 8.0 16.1 0.00 0.00 0.00 67 1019.5
20260504035503 17 161 6.4 11.3 0.00 0.00 0.00 66 1019.3
20260504035003 17 159 8.0 17.7 0.00 0.00 0.00 67 1019.4
20260504034503 17 151 8.0 17.7 0.00 0.00 0.00 67 1019.3
20260504034003 17 148 8.0 17.7 0.00 0.00 0.00 68 1019.3
20260504033503 17 158 8.0 17.7 0.00 0.00 0.00 67 1019.3
20260504033003 16 163 8.0 12.9 0.00 0.00 0.00 67 1019.3
20260504032503 16 159 6.4 12.9 0.00 0.00 0.00 66 1019.1
20260504032003 17 152 3.2 12.9 0.00 0.00 0.00 65 1019.2
20260504031524 17 148 3.2 9.7 0.00 0.00 0.00 64 1019.3
20260504031003 17 148 1.6 9.7 0.00 0.00 0.00 64 1019.3
20260504030503 17 148 0.0 1.6 0.00 0.00 0.00 63 1019.1
20260504030003 17 0 0.0 0.0 0.00 0.00 0.00 62 1019.1
20260504025503 18 0 0.0 0.0 0.00 0.00 0.00 61 1019.3
20260504025024 18 0 0.0 0.0 0.00 0.00 0.00 60 1019.2
20260504024503 18 0 0.0 0.0 0.00 0.00 0.00 59 1019.1
20260504024003 18 0 0.0 0.0 0.00 0.00 0.00 59 1019.1
20260504023503 19 0 0.0 0.0 0.00 0.00 0.00 57 1019.0
20260504023024 19 0 0.0 0.0 0.00 0.00 0.00 57 1019.0
20260504022524 20 0 0.0 0.0 0.00 0.00 0.00 57 1019.0
20260504022003 20 0 0.0 0.0 0.00 0.00 0.00 56 1019.0
20260504021503 20 0 0.0 0.0 0.00 0.00 0.00 54 1019.2
20260504021003 20 0 0.0 0.0 0.00 0.00 0.00 53 1019.1
20260504020503 21 0 0.0 0.0 0.00 0.00 0.00 53 1019.0
20260504020003 21 148 0.0 3.2 0.00 0.00 0.00 52 1019.0
20260504015503 21 148 1.6 3.2 0.00 0.00 0.00 52 1018.9
20260504015003 21 148 1.6 3.2 0.00 0.00 0.00 50 1018.8
20260504014503 21 148 1.6 8.0 0.00 0.00 0.00 48 1018.6
20260504014004 22 148 3.2 8.0 0.00 0.00 0.00 47 1018.5
20260504013504 22 148 3.2 8.0 0.00 0.00 0.00 47 1018.5
20260504013004 22 148 3.2 6.4 0.00 0.00 0.00 46 1018.4
20260504012504 22 148 3.2 6.4 0.00 0.00 0.00 46 1018.4
20260504012004 22 148 6.4 8.0 0.00 0.00 0.00 46 1018.4
20260504011504 22 148 6.4 8.0 0.00 0.00 0.00 46 1018.4
20260504011004 23 148 6.4 11.3 0.00 0.00 0.00 46 1018.3
20260504010504 23 148 6.4 11.3 0.00 0.00 0.00 45 1018.5
20260504010004 23 148 6.4 9.7 0.00 0.00 0.00 45 1018.5
20260504005525 23 148 3.2 9.7 0.00 0.00 0.00 45 1018.5
20260504005004 23 148 6.4 11.3 0.00 0.00 0.00 44 1018.5
20260504004525 23 148 6.4 11.3 0.00 0.00 0.00 44 1018.4
20260504004025 23 147 6.4 11.3 0.00 0.00 0.00 43 1018.5
20260504003504 24 142 6.4 12.9 0.00 0.00 0.00 44 1018.5
20260504003004 24 142 8.0 19.3 0.00 0.00 0.00 43 1018.5
20260504002504 24 152 8.0 19.3 0.00 0.00 0.00 44 1018.5
20260504002025 24 161 8.0 16.1 0.00 0.00 0.00 43 1018.6
20260504001504 24 162 8.0 19.3 0.00 0.00 0.00 42 1018.7
20260504001004 25 158 8.0 19.3 0.00 0.00 0.00 41 1018.8
20260504000525 25 146 8.0 17.7 0.00 0.00 0.00 40 1018.8
20260504000004 25 148 9.7 17.7 0.00 0.00 0.00 40 1018.9
20260503235525 25 146 9.7 22.5 0.00 0.00 0.00 40 1018.9
20260503235025 25 139 9.7 22.5 0.00 0.00 0.00 39 1019.2
20260503234504 25 140 8.0 17.7 0.00 0.00 0.00 39 1019.1
20260503234004 25 159 9.7 19.3 0.00 0.00 0.00 38 1019.0
20260503233504 25 163 11.3 19.3 0.00 0.00 0.00 37 1019.0
20260503233004 26 144 9.7 17.7 0.00 0.00 0.00 38 1019.0
20260503232504 25 140 9.7 17.7 0.00 0.00 0.00 39 1019.1
20260503232004 25 158 9.7 27.4 0.00 0.00 0.00 38 1019.1
20260503231504 26 166 11.3 27.4 0.00 0.00 0.00 37 1019.1
20260503231004 26 161 12.9 25.7 0.00 0.00 0.00 37 1019.0
20260503230504 26 161 11.3 25.7 0.00 0.00 0.00 35 1019.0
20260503230004 26 145 9.7 19.3 0.00 0.00 0.00 36 1019.0
20260503225503 26 137 11.3 20.9 0.00 0.00 0.00 36 1019.0
20260503225004 26 136 11.3 20.9 0.00 0.00 0.00 36 1019.0
20260503224504 26 131 11.3 29.0 0.00 0.00 0.00 37 1019.2
20260503224004 27 139 9.7 29.0 0.00 0.00 0.00 34 1019.2
20260503223504 27 135 11.3 25.7 0.00 0.00 0.00 33 1019.3
20260503223003 27 132 11.3 25.7 0.00 0.00 0.00 34 1019.4
20260503222504 28 140 11.3 27.4 0.00 0.00 0.00 33 1019.5
20260503222003 28 137 11.3 27.4 0.00 0.00 0.00 33 1019.6
20260503221504 28 139 9.7 22.5 0.00 0.00 0.00 33 1019.6
20260503221004 28 140 12.9 27.4 0.00 0.00 0.00 33 1019.7
20260503220504 28 138 12.9 27.4 0.00 0.00 0.00 34 1019.8
20260503220003 28 142 11.3 27.4 0.00 0.00 0.00 33 1020.0
20260503215525 28 139 11.3 27.4 0.00 0.00 0.00 32 1019.9
20260503215004 28 143 11.3 22.5 0.00 0.00 0.00 31 1020.0
20260503214525 28 142 11.3 22.5 0.00 0.00 0.00 30 1020.0
20260503214003 28 154 11.3 22.5 0.00 0.00 0.00 32 1020.1
20260503213503 28 166 11.3 20.9 0.00 0.00 0.00 33 1020.2
20260503213004 28 155 11.3 25.7 0.00 0.00 0.00 32 1020.3
20260503212525 28 158 12.9 29.0 0.00 0.00 0.00 35 1020.4
20260503212004 28 153 12.9 29.0 0.00 0.00 0.00 35 1020.6
20260503211525 28 149 11.3 25.7 0.00 0.00 0.00 33 1020.6
20260503211003 28 163 9.7 19.3 0.00 0.00 0.00 32 1020.7
20260503210503 28 170 11.3 22.5 0.00 0.00 0.00 33 1020.7
20260503210005 28 164 12.9 25.7 0.00 0.00 0.00 31 1020.8
20260503205504 27 167 16.1 35.4 0.00 0.00 0.00 33 1021.0
20260503205003 28 174 17.7 35.4 0.00 0.00 0.00 32 1021.1
20260503204525 28 178 12.9 35.4 0.00 0.00 0.00 32 1021.0
20260503204003 28 175 11.3 25.7 0.00 0.00 0.00 31 1021.1
20260503203503 28 164 11.3 25.7 0.00 0.00 0.00 32 1021.4
20260503203004 28 154 12.9 32.2 0.00 0.00 0.00 31 1021.4
20260503202504 28 155 12.9 32.2 0.00 0.00 0.00 32 1021.7
20260503202003 28 152 11.3 22.5 0.00 0.00 0.00 37 1021.7
20260503201504 28 143 9.7 22.5 0.00 0.00 0.00 33 1021.6
20260503201004 28 146 11.3 22.5 0.00 0.00 0.00 33 1021.6
20260503200504 28 147 11.3 22.5 0.00 0.00 0.00 35 1021.7
20260503200025 28 170 12.9 30.6 0.00 0.00 0.00 32 1021.9
20260503195503 28 166 16.1 30.6 0.00 0.00 0.00 32 1022.1
20260503195003 28 150 11.3 32.2 0.00 0.00 0.00 33 1022.1
20260503194525 28 141 12.9 32.2 0.00 0.00 0.00 35 1022.1
20260503194004 27 135 12.9 25.7 0.00 0.00 0.00 34 1022.2
20260503193503 28 157 12.9 29.0 0.00 0.00 0.00 32 1022.3
20260503193004 27 164 16.1 30.6 0.00 0.00 0.00 31 1022.4
20260503192504 28 141 12.9 30.6 0.00 0.00 0.00 34 1022.4
20260503192003 28 140 12.9 29.0 0.00 0.00 0.00 35 1022.5
20260503191503 27 166 12.9 29.0 0.00 0.00 0.00 36 1022.4
20260503191004 27 174 16.1 30.6 0.00 0.00 0.00 35 1022.5
20260503190503 27 168 16.1 30.6 0.00 0.00 0.00 37 1022.6
20260503190004 27 172 11.3 27.4 0.00 0.00 0.00 35 1022.6
20260503185504 27 171 12.9 29.0 0.00 0.00 0.00 36 1022.7
20260503185003 27 156 12.9 30.6 0.00 0.00 0.00 35 1022.9
20260503184503 27 152 11.3 30.6 0.00 0.00 0.00 35 1023.1
20260503184004 27 150 11.3 22.5 0.00 0.00 0.00 38 1023.1
20260503183503 27 156 12.9 25.7 0.00 0.00 0.00 34 1023.3
20260503183004 27 168 11.3 25.7 0.00 0.00 0.00 35 1023.2
20260503182503 27 177 11.3 27.4 0.00 0.00 0.00 37 1023.3
20260503182004 27 174 12.9 30.6 0.00 0.00 0.00 35 1023.5
20260503181524 27 155 12.9 30.6 0.00 0.00 0.00 37 1023.6
20260503181004 27 151 11.3 25.7 0.00 0.00 0.00 36 1023.6
20260503180524 27 146 11.3 25.7 0.00 0.00 0.00 37 1023.7
20260503180004 27 153 9.7 25.7 0.00 0.00 0.00 37 1023.8
20260503175503 27 160 9.7 29.0 0.00 0.00 0.00 39 1023.8
20260503175024 26 161 12.9 29.0 0.00 0.00 0.00 37 1023.9
20260503174503 26 173 12.9 27.4 0.00 0.00 0.00 36 1023.9
20260503174003 26 166 11.3 27.4 0.00 0.00 0.00 36 1024.0
20260503173503 26 164 12.9 27.4 0.00 0.00 0.00 36 1024.3
20260503173003 26 167 12.9 25.7 0.00 0.00 0.00 36 1024.3
20260503172504 26 168 12.9 25.7 0.00 0.00 0.00 37 1024.4
20260503172004 26 156 12.9 25.7 0.00 0.00 0.00 36 1024.6
20260503171503 26 142 11.3 25.7 0.00 0.00 0.00 38 1024.6
20260503171003 26 163 12.9 27.4 0.00 0.00 0.00 39 1024.6
20260503170503 26 158 11.3 27.4 0.00 0.00 0.00 41 1024.6
20260503151003 22 201 8.0 17.7 0.00 0.00 0.00 57 1025.2
20260503150503 22 206 8.0 19.3 0.00 0.00 0.00 55 1025.2
20260503131025 10 25 1.6 3.2 0.00 0.00 0.00 94 1024.6
20260503130504 10 25 0.0 3.2 0.00 0.00 0.00 93 1024.5
20260503110504 8 25 0.0 1.6 0.00 0.00 0.00 90 1023.8
20260503090504 9 0 0.0 0.0 0.00 0.00 0.00 89 1023.2
20260503081524 10 0 0.0 0.0 0.00 0.00 0.00 88 1023.3
20260503081025 10 0 0.0 0.0 0.00 0.00 0.00 88 1023.2
20260503080504 10 0 0.0 0.0 0.00 0.00 0.00 88 1023.2
20260503072503 10 25 1.6 1.6 0.00 0.00 0.00 87 1023.7
20260503072024 10 25 0.0 1.6 0.00 0.00 0.00 87 1023.6
20260503071504 10 0 0.0 0.0 0.00 0.00 0.00 87 1023.7
20260503071024 10 0 0.0 0.0 0.00 0.00 0.00 87 1023.7
20260503070503 10 0 0.0 0.0 0.00 0.00 0.00 87 1023.6
20260503055025 11 25 1.6 3.2 0.00 0.00 0.00 84 1023.7
20260503054503 11 25 0.0 3.2 0.00 0.00 0.00 84 1023.8
20260503054003 11 0 0.0 0.0 0.00 0.00 0.00 84 1023.8
20260503053503 11 0 0.0 0.0 0.00 0.00 0.00 84 1023.8
20260503053003 11 25 0.0 1.6 0.00 0.00 0.00 84 1023.7
20260503052503 11 25 0.0 1.6 0.00 0.00 0.00 84 1023.7